| time (UTC) | temp F | wind direction | speed MPH | gust MPH | rain 1hr in | rain 24hr in | rain mn in | humidity % | barometer mb |
| 20260504194525 | 80 | 206 | 8.0 | 14.0 | 0.00 | 0.00 | 0.00 | 63 | 1012.2 |
| 20260504194004 | 80 | 191 | 9.0 | 16.0 | 0.00 | 0.00 | 0.00 | 63 | 1012.3 |
| 20260504193504 | 80 | 190 | 8.0 | 16.0 | 0.00 | 0.00 | 0.00 | 63 | 1012.6 |
| 20260504193004 | 81 | 201 | 7.0 | 15.0 | 0.00 | 0.00 | 0.00 | 63 | 1012.7 |
| 20260504192504 | 81 | 195 | 7.0 | 15.0 | 0.00 | 0.00 | 0.00 | 62 | 1012.5 |
| 20260504192025 | 81 | 198 | 8.0 | 15.0 | 0.00 | 0.00 | 0.00 | 62 | 1012.6 |
| 20260504191504 | 81 | 211 | 9.0 | 18.0 | 0.00 | 0.00 | 0.00 | 62 | 1012.6 |
| 20260504191005 | 81 | 202 | 8.0 | 18.0 | 0.00 | 0.00 | 0.00 | 62 | 1012.7 |
| 20260504190504 | 81 | 206 | 8.0 | 14.0 | 0.00 | 0.00 | 0.00 | 63 | 1012.7 |
| 20260504190005 | 81 | 210 | 8.0 | 14.0 | 0.00 | 0.00 | 0.00 | 62 | 1012.7 |
| 20260504185525 | 80 | 200 | 8.0 | 14.0 | 0.00 | 0.00 | 0.00 | 63 | 1012.7 |
| 20260504185004 | 80 | 205 | 9.0 | 15.0 | 0.00 | 0.00 | 0.00 | 65 | 1012.9 |
| 20260504184504 | 80 | 195 | 9.0 | 15.0 | 0.00 | 0.00 | 0.00 | 63 | 1013.1 |
| 20260504184004 | 80 | 188 | 8.0 | 15.0 | 0.00 | 0.00 | 0.00 | 63 | 1013.2 |
| 20260504183525 | 80 | 190 | 9.0 | 17.0 | 0.00 | 0.00 | 0.00 | 65 | 1013.1 |
| 20260504183004 | 80 | 178 | 8.0 | 17.0 | 0.00 | 0.00 | 0.00 | 62 | 1013.1 |
| 20260504182504 | 80 | 178 | 7.0 | 12.0 | 0.00 | 0.00 | 0.00 | 64 | 1013.3 |
| 20260504182004 | 80 | 181 | 8.0 | 15.0 | 0.00 | 0.00 | 0.00 | 65 | 1013.2 |
| 20260504181525 | 80 | 175 | 9.0 | 15.0 | 0.00 | 0.00 | 0.00 | 65 | 1013.2 |
| 20260504181004 | 79 | 177 | 8.0 | 15.0 | 0.00 | 0.00 | 0.00 | 65 | 1013.4 |
| 20260504180505 | 79 | 177 | 7.0 | 17.0 | 0.00 | 0.00 | 0.00 | 66 | 1013.6 |
| 20260504180004 | 79 | 187 | 8.0 | 17.0 | 0.00 | 0.00 | 0.00 | 66 | 1013.6 |
| 20260504175504 | 78 | 195 | 8.0 | 15.0 | 0.00 | 0.00 | 0.00 | 66 | 1013.7 |
| 20260504175004 | 78 | 195 | 8.0 | 15.0 | 0.00 | 0.00 | 0.00 | 68 | 1013.9 |
| 20260504174525 | 78 | 197 | 9.0 | 15.0 | 0.00 | 0.00 | 0.00 | 68 | 1014.1 |
| 20260504174004 | 78 | 192 | 8.0 | 14.0 | 0.00 | 0.00 | 0.00 | 66 | 1014.1 |
| 20260504173504 | 78 | 182 | 8.0 | 19.0 | 0.00 | 0.00 | 0.00 | 66 | 1014.1 |
| 20260504173004 | 78 | 185 | 8.0 | 19.0 | 0.00 | 0.00 | 0.00 | 69 | 1014.2 |
| 20260504172505 | 77 | 198 | 7.0 | 13.0 | 0.00 | 0.00 | 0.00 | 70 | 1014.4 |
| 20260504172025 | 77 | 202 | 8.0 | 13.0 | 0.00 | 0.00 | 0.00 | 71 | 1014.3 |
| 20260504171504 | 76 | 192 | 8.0 | 14.0 | 0.00 | 0.00 | 0.00 | 70 | 1014.4 |
| 20260504171004 | 77 | 185 | 8.0 | 14.0 | 0.00 | 0.00 | 0.00 | 70 | 1014.6 |
| 20260504170504 | 77 | 188 | 7.0 | 13.0 | 0.00 | 0.00 | 0.00 | 70 | 1014.7 |
| 20260504151004 | 70 | 188 | 8.0 | 15.0 | 0.00 | 0.00 | 0.00 | 79 | 1015.5 |
| 20260504150504 | 70 | 189 | 8.0 | 15.0 | 0.00 | 0.00 | 0.00 | 80 | 1015.5 |
| 20260504141026 | 68 | 184 | 6.0 | 11.0 | 0.00 | 0.00 | 0.00 | 80 | 1015.5 |
| 20260504140504 | 68 | 181 | 5.0 | 11.0 | 0.00 | 0.00 | 0.00 | 80 | 1015.5 |
| 20260504130504 | 62 | 0 | 0.0 | 0.0 | 0.00 | 0.00 | 0.00 | 86 | 1015.7 |
| 20260504110504 | 61 | 0 | 0.0 | 0.0 | 0.00 | 0.00 | 0.00 | 85 | 1015.4 |
| 20260504100504 | 61 | 180 | 0.0 | 1.0 | 0.00 | 0.00 | 0.00 | 85 | 1015.2 |
| 20260504082004 | 63 | 180 | 1.0 | 3.0 | 0.00 | 0.00 | 0.00 | 80 | 1015.8 |
| 20260504081503 | 63 | 178 | 1.0 | 5.0 | 0.00 | 0.00 | 0.00 | 80 | 1016.0 |
| 20260504081004 | 63 | 168 | 2.0 | 5.0 | 0.00 | 0.00 | 0.00 | 79 | 1015.9 |
| 20260504080504 | 63 | 158 | 2.0 | 5.0 | 0.00 | 0.00 | 0.00 | 79 | 1015.9 |
| 20260504050503 | 67 | 160 | 5.0 | 11.0 | 0.00 | 0.00 | 0.00 | 71 | 1017.9 |
| 20260504050025 | 67 | 161 | 5.0 | 10.0 | 0.00 | 0.00 | 0.00 | 70 | 1017.9 |
| 20260504045503 | 67 | 159 | 5.0 | 10.0 | 0.00 | 0.00 | 0.00 | 70 | 1018.0 |
| 20260504045004 | 67 | 156 | 5.0 | 10.0 | 0.00 | 0.00 | 0.00 | 70 | 1018.0 |
| 20260504044504 | 67 | 158 | 5.0 | 14.0 | 0.00 | 0.00 | 0.00 | 69 | 1018.1 |
| 20260504044004 | 68 | 160 | 6.0 | 14.0 | 0.00 | 0.00 | 0.00 | 69 | 1018.0 |
| 20260504043504 | 67 | 154 | 6.0 | 10.0 | 0.00 | 0.00 | 0.00 | 69 | 1018.1 |
| 20260504043003 | 68 | 151 | 5.0 | 10.0 | 0.00 | 0.00 | 0.00 | 68 | 1017.9 |
| 20260504042504 | 68 | 157 | 5.0 | 10.0 | 0.00 | 0.00 | 0.00 | 68 | 1018.1 |
| 20260504042005 | 68 | 158 | 6.0 | 12.0 | 0.00 | 0.00 | 0.00 | 67 | 1018.3 |
| 20260504041504 | 68 | 156 | 6.0 | 12.0 | 0.00 | 0.00 | 0.00 | 67 | 1018.3 |
| 20260504041004 | 68 | 158 | 6.0 | 13.0 | 0.00 | 0.00 | 0.00 | 67 | 1018.3 |
| 20260504040526 | 68 | 157 | 6.0 | 13.0 | 0.00 | 0.00 | 0.00 | 66 | 1018.2 |
| 20260504040003 | 68 | 157 | 6.0 | 12.0 | 0.00 | 0.00 | 0.00 | 66 | 1018.3 |
| 20260504035503 | 68 | 154 | 6.0 | 10.0 | 0.00 | 0.00 | 0.00 | 65 | 1018.5 |
| 20260504035004 | 68 | 152 | 5.0 | 10.0 | 0.00 | 0.00 | 0.00 | 65 | 1018.5 |
| 20260504034504 | 68 | 150 | 5.0 | 9.0 | 0.00 | 0.00 | 0.00 | 65 | 1018.6 |
| 20260504034003 | 68 | 150 | 5.0 | 10.0 | 0.00 | 0.00 | 0.00 | 64 | 1018.4 |
| 20260504033504 | 68 | 154 | 5.0 | 10.0 | 0.00 | 0.00 | 0.00 | 64 | 1018.3 |
| 20260504033025 | 68 | 153 | 5.0 | 9.0 | 0.00 | 0.00 | 0.00 | 63 | 1018.3 |
| 20260504032503 | 68 | 153 | 6.0 | 9.0 | 0.00 | 0.00 | 0.00 | 63 | 1018.3 |
| 20260504032004 | 69 | 155 | 6.0 | 11.0 | 0.00 | 0.00 | 0.00 | 62 | 1018.2 |
| 20260504031525 | 69 | 153 | 5.0 | 11.0 | 0.00 | 0.00 | 0.00 | 62 | 1018.2 |
| 20260504031004 | 69 | 146 | 5.0 | 10.0 | 0.00 | 0.00 | 0.00 | 61 | 1018.1 |
| 20260504030503 | 69 | 145 | 5.0 | 10.0 | 0.00 | 0.00 | 0.00 | 61 | 1018.1 |
| 20260504030003 | 69 | 150 | 5.0 | 8.0 | 0.00 | 0.00 | 0.00 | 61 | 1018.1 |
| 20260504025503 | 69 | 152 | 5.0 | 9.0 | 0.00 | 0.00 | 0.00 | 61 | 1018.2 |
| 20260504025003 | 70 | 152 | 5.0 | 11.0 | 0.00 | 0.00 | 0.00 | 61 | 1018.2 |
| 20260504024504 | 70 | 150 | 5.0 | 11.0 | 0.00 | 0.00 | 0.00 | 61 | 1018.1 |
| 20260504024003 | 70 | 146 | 5.0 | 8.0 | 0.00 | 0.00 | 0.00 | 61 | 1018.1 |
| 20260504023503 | 70 | 145 | 4.0 | 8.0 | 0.00 | 0.00 | 0.00 | 61 | 1018.1 |
| 20260504023003 | 70 | 146 | 4.0 | 8.0 | 0.00 | 0.00 | 0.00 | 60 | 1018.2 |
| 20260504022503 | 70 | 143 | 4.0 | 9.0 | 0.00 | 0.00 | 0.00 | 60 | 1018.1 |
| 20260504022003 | 70 | 142 | 4.0 | 9.0 | 0.00 | 0.00 | 0.00 | 59 | 1017.9 |
| 20260504021505 | 70 | 141 | 4.0 | 8.0 | 0.00 | 0.00 | 0.00 | 60 | 1017.8 |
| 20260504021004 | 70 | 144 | 4.0 | 7.0 | 0.00 | 0.00 | 0.00 | 59 | 1017.9 |
| 20260504020503 | 70 | 143 | 4.0 | 8.0 | 0.00 | 0.00 | 0.00 | 58 | 1017.9 |
| 20260504020004 | 70 | 139 | 3.0 | 8.0 | 0.00 | 0.00 | 0.00 | 58 | 1017.7 |
| 20260504015504 | 70 | 137 | 3.0 | 7.0 | 0.00 | 0.00 | 0.00 | 57 | 1017.6 |
| 20260504015003 | 70 | 138 | 2.0 | 5.0 | 0.00 | 0.00 | 0.00 | 56 | 1017.6 |
| 20260504014503 | 70 | 139 | 2.0 | 3.0 | 0.00 | 0.00 | 0.00 | 56 | 1017.5 |
| 20260504014004 | 71 | 145 | 2.0 | 4.0 | 0.00 | 0.00 | 0.00 | 56 | 1017.5 |
| 20260504013503 | 71 | 154 | 1.0 | 4.0 | 0.00 | 0.00 | 0.00 | 56 | 1017.4 |
| 20260504013004 | 71 | 158 | 0.0 | 3.0 | 0.00 | 0.00 | 0.00 | 55 | 1017.3 |
| 20260504012505 | 72 | 158 | 0.0 | 2.0 | 0.00 | 0.00 | 0.00 | 54 | 1017.3 |
| 20260504012004 | 72 | 158 | 1.0 | 2.0 | 0.00 | 0.00 | 0.00 | 52 | 1017.2 |
| 20260504011505 | 73 | 158 | 1.0 | 2.0 | 0.00 | 0.00 | 0.00 | 51 | 1017.0 |
| 20260504011004 | 73 | 158 | 1.0 | 2.0 | 0.00 | 0.00 | 0.00 | 51 | 1017.0 |
| 20260504010504 | 73 | 158 | 0.0 | 1.0 | 0.00 | 0.00 | 0.00 | 50 | 1017.1 |
| 20260504010005 | 73 | 158 | 0.0 | 1.0 | 0.00 | 0.00 | 0.00 | 49 | 1017.2 |
| 20260504005504 | 74 | 158 | 0.0 | 2.0 | 0.00 | 0.00 | 0.00 | 49 | 1017.2 |
| 20260504005005 | 74 | 153 | 2.0 | 4.0 | 0.00 | 0.00 | 0.00 | 49 | 1017.1 |
| 20260504004504 | 75 | 150 | 2.0 | 6.0 | 0.00 | 0.00 | 0.00 | 47 | 1017.1 |
| 20260504004005 | 75 | 154 | 2.0 | 6.0 | 0.00 | 0.00 | 0.00 | 47 | 1017.2 |
| 20260504003504 | 75 | 161 | 2.0 | 5.0 | 0.00 | 0.00 | 0.00 | 46 | 1017.2 |
| 20260504003026 | 76 | 171 | 3.0 | 6.0 | 0.00 | 0.00 | 0.00 | 46 | 1017.3 |
| 20260504002504 | 76 | 180 | 3.0 | 6.0 | 0.00 | 0.00 | 0.00 | 46 | 1017.3 |
| 20260504002004 | 76 | 185 | 4.0 | 9.0 | 0.00 | 0.00 | 0.00 | 45 | 1017.5 |
| 20260504001527 | 76 | 188 | 5.0 | 9.0 | 0.00 | 0.00 | 0.00 | 44 | 1017.6 |
| 20260504001005 | 77 | 185 | 5.0 | 9.0 | 0.00 | 0.00 | 0.00 | 45 | 1017.5 |
| 20260504000505 | 77 | 168 | 4.0 | 8.0 | 0.00 | 0.00 | 0.00 | 43 | 1017.7 |
| 20260504000004 | 78 | 161 | 4.0 | 6.0 | 0.00 | 0.00 | 0.00 | 42 | 1017.7 |
| 20260503235526 | 78 | 178 | 4.0 | 7.0 | 0.00 | 0.00 | 0.00 | 43 | 1017.8 |
| 20260503235004 | 78 | 180 | 5.0 | 11.0 | 0.00 | 0.00 | 0.00 | 42 | 1017.8 |
| 20260503234504 | 78 | 174 | 5.0 | 11.0 | 0.00 | 0.00 | 0.00 | 41 | 1017.8 |
| 20260503234004 | 78 | 168 | 4.0 | 9.0 | 0.00 | 0.00 | 0.00 | 43 | 1017.8 |
| 20260503233504 | 78 | 171 | 4.0 | 10.0 | 0.00 | 0.00 | 0.00 | 42 | 1017.7 |
| 20260503233004 | 78 | 168 | 5.0 | 10.0 | 0.00 | 0.00 | 0.00 | 43 | 1017.8 |
| 20260503232504 | 78 | 160 | 5.0 | 9.0 | 0.00 | 0.00 | 0.00 | 42 | 1017.8 |
| 20260503232005 | 78 | 178 | 5.0 | 9.0 | 0.00 | 0.00 | 0.00 | 42 | 1017.9 |
| 20260503231526 | 78 | 177 | 5.0 | 11.0 | 0.00 | 0.00 | 0.00 | 40 | 1017.9 |
| 20260503231026 | 78 | 156 | 5.0 | 11.0 | 0.00 | 0.00 | 0.00 | 41 | 1017.9 |
| 20260503230505 | 78 | 139 | 5.0 | 8.0 | 0.00 | 0.00 | 0.00 | 42 | 1017.7 |
| 20260503230004 | 78 | 135 | 5.0 | 10.0 | 0.00 | 0.00 | 0.00 | 42 | 1017.9 |
| 20260503225504 | 78 | 141 | 5.0 | 10.0 | 0.00 | 0.00 | 0.00 | 44 | 1017.9 |
| 20260503225005 | 78 | 164 | 5.0 | 10.0 | 0.00 | 0.00 | 0.00 | 43 | 1017.9 |
| 20260503224504 | 78 | 173 | 4.0 | 8.0 | 0.00 | 0.00 | 0.00 | 44 | 1017.8 |
| 20260503224004 | 78 | 160 | 5.0 | 9.0 | 0.00 | 0.00 | 0.00 | 42 | 1018.0 |
| 20260503223504 | 78 | 158 | 5.0 | 9.0 | 0.00 | 0.00 | 0.00 | 42 | 1018.1 |
| 20260503223004 | 79 | 154 | 4.0 | 9.0 | 0.00 | 0.00 | 0.00 | 47 | 1018.1 |
| 20260503222505 | 78 | 168 | 4.0 | 9.0 | 0.00 | 0.00 | 0.00 | 44 | 1018.1 |
| 20260503222004 | 78 | 178 | 5.0 | 9.0 | 0.00 | 0.00 | 0.00 | 41 | 1018.2 |
| 20260503221505 | 78 | 163 | 5.0 | 9.0 | 0.00 | 0.00 | 0.00 | 42 | 1018.3 |
| 20260503221004 | 78 | 157 | 5.0 | 8.0 | 0.00 | 0.00 | 0.00 | 42 | 1018.5 |
| 20260503220505 | 78 | 169 | 5.0 | 9.0 | 0.00 | 0.00 | 0.00 | 44 | 1018.6 |
| 20260503220005 | 78 | 180 | 6.0 | 11.0 | 0.00 | 0.00 | 0.00 | 41 | 1018.6 |
| 20260503215505 | 79 | 193 | 6.0 | 11.0 | 0.00 | 0.00 | 0.00 | 43 | 1018.8 |
| 20260503215025 | 79 | 191 | 6.0 | 14.0 | 0.00 | 0.00 | 0.00 | 42 | 1018.9 |
| 20260503214504 | 78 | 168 | 6.0 | 14.0 | 0.00 | 0.00 | 0.00 | 43 | 1019.1 |
| 20260503214005 | 78 | 137 | 4.0 | 9.0 | 0.00 | 0.00 | 0.00 | 42 | 1019.0 |
| 20260503213504 | 78 | 133 | 3.0 | 8.0 | 0.00 | 0.00 | 0.00 | 40 | 1018.9 |
| 20260503213004 | 78 | 139 | 4.0 | 11.0 | 0.00 | 0.00 | 0.00 | 41 | 1018.9 |
| 20260503212504 | 78 | 161 | 5.0 | 11.0 | 0.00 | 0.00 | 0.00 | 39 | 1019.1 |
| 20260503212004 | 78 | 184 | 6.0 | 12.0 | 0.00 | 0.00 | 0.00 | 41 | 1019.3 |
| 20260503211504 | 78 | 196 | 7.0 | 14.0 | 0.00 | 0.00 | 0.00 | 42 | 1019.5 |
| 20260503211005 | 78 | 200 | 7.0 | 14.0 | 0.00 | 0.00 | 0.00 | 41 | 1019.6 |
| 20260503210505 | 78 | 192 | 6.0 | 14.0 | 0.00 | 0.00 | 0.00 | 42 | 1019.7 |
| 20260503210025 | 78 | 195 | 5.0 | 10.0 | 0.00 | 0.00 | 0.00 | 41 | 1019.7 |
| 20260503205504 | 78 | 195 | 6.0 | 10.0 | 0.00 | 0.00 | 0.00 | 42 | 1019.9 |
| 20260503205026 | 78 | 183 | 7.0 | 13.0 | 0.00 | 0.00 | 0.00 | 42 | 1019.9 |
| 20260503204526 | 78 | 183 | 7.0 | 13.0 | 0.00 | 0.00 | 0.00 | 42 | 1020.1 |
| 20260503204004 | 78 | 181 | 6.0 | 10.0 | 0.00 | 0.00 | 0.00 | 40 | 1020.1 |
| 20260503203504 | 79 | 177 | 4.0 | 10.0 | 0.00 | 0.00 | 0.00 | 42 | 1020.2 |
| 20260503203004 | 78 | 177 | 4.0 | 10.0 | 0.00 | 0.00 | 0.00 | 37 | 1020.1 |
| 20260503202505 | 78 | 168 | 6.0 | 10.0 | 0.00 | 0.00 | 0.00 | 37 | 1020.4 |
| 20260503202005 | 78 | 155 | 5.0 | 10.0 | 0.00 | 0.00 | 0.00 | 38 | 1020.6 |
| 20260503201504 | 78 | 142 | 5.0 | 10.0 | 0.00 | 0.00 | 0.00 | 36 | 1020.5 |
| 20260503201004 | 78 | 157 | 5.0 | 10.0 | 0.00 | 0.00 | 0.00 | 38 | 1020.4 |
| 20260503200526 | 78 | 169 | 4.0 | 10.0 | 0.00 | 0.00 | 0.00 | 38 | 1020.6 |
| 20260503200004 | 78 | 181 | 6.0 | 15.0 | 0.00 | 0.00 | 0.00 | 38 | 1020.8 |
| 20260503195505 | 78 | 176 | 6.0 | 15.0 | 0.00 | 0.00 | 0.00 | 40 | 1020.8 |
| 20260503195005 | 78 | 158 | 5.0 | 10.0 | 0.00 | 0.00 | 0.00 | 44 | 1020.8 |